Weather History for Lima, OH

Change the Weather History Date:

Monday, August 19, 2013

  Actual Average (KFDY) Record (KFDY)
Temperature  
Mean Temperature 68 °F -  
Max Temperature 84 °F 79 °F 96 °F (1983)
Min Temperature 55 °F 61 °F 49 °F (1958)
Cooling Degree Days 4    
Growing Degree Days 18 (Base 50)    
Moisture  
Dew Point 57 °F    
Average Humidity 74    
Maximum Humidity 96    
Minimum Humidity 41    
Precipitation  
Precipitation 0.01 in - - ()
Sea Level Pressure  
Sea Level Pressure 30.12 in    
Wind  
Wind Speed 1 mph (WSW)    
Max Wind Speed 5 mph    
Max Gust Speed -    
Visibility 6 miles    
Events Fog    
Averages and records for this station are not official NWS values.
T = Trace of Precipitation, MM = Missing Value Source: NWS Daily Summary

Daily Weather History Graph

Daily Weather History Graph

Search for Another Location

Airport:

Trip Planner

Search our weather history database for the weather conditions in past years. The results will help you decide how hot, cold, wet, or windy it might be!

Date:

Astronomy

Aug. 19, 2013 Rise Set
Actual Time 6:50 AM EDT 8:27 PM EDT
Civil Twilight 6:21 AM EDT 8:56 PM EDT
Nautical Twilight 5:46 AM EDT 9:31 PM EDT
Astronomical Twilight 5:09 AM EDT 10:09 PM EDT
Moon 7:18 PM EDT (8/19) 5:08 AM EDT (8/19)
Length of Visible Light 14h 35m
Length of Day
13h 37m
Waxing Gibbous, 97% of the Moon is Illuminated
Aug 19
Waxing Gibbous
Aug 20
Full
Aug 28
Last Quarter
Sep 5
New
Sep 12
First Quarter

Hourly Weather History & Observations

Time (EDT) Temp. Heat Index Dew Point Humidity Pressure Visibility Wind Dir Wind Speed Gust Speed Precip Events Conditions
12:53 AM 62.1 °F - 55.9 °F 80% 30.13 in 10.0 mi Calm Calm - N/A   Clear
1:53 AM 59.0 °F - 55.0 °F 87% 30.13 in 8.0 mi Calm Calm - N/A   Clear
2:50 AM 57.2 °F - 53.6 °F 88% 30.13 in 1.2 mi Calm Calm - N/A   Clear
2:53 AM 57.0 °F - 54.0 °F 89% 30.12 in 1.0 mi Calm Calm - N/A   Clear
2:59 AM 57.2 °F - 53.6 °F 88% 30.13 in 0.5 mi Calm Calm - N/A Fog Fog
3:08 AM 57.2 °F - 53.6 °F 88% 30.13 in 0.2 mi Calm Calm - N/A Fog Fog
3:26 AM 55.4 °F - 53.6 °F 94% 30.13 in 0.2 mi Calm Calm - N/A Fog Fog
3:53 AM 57.0 °F - 55.9 °F 96% 30.12 in 0.2 mi Calm Calm - N/A Fog Fog
4:53 AM 61.0 °F - 57.9 °F 90% 30.12 in 0.2 mi Calm Calm - N/A Fog Fog
5:53 AM 60.1 °F - 57.0 °F 90% 30.12 in 0.2 mi South 3.5 mph - N/A Fog Fog
6:53 AM 60.1 °F - 57.9 °F 93% 30.14 in 0.2 mi South 4.6 mph - 0.01 in Fog Fog
7:38 AM 60.8 °F - 57.2 °F 88% 30.15 in 1.0 mi Calm Calm - N/A   Mostly Cloudy
7:43 AM 60.8 °F - 57.2 °F 88% 30.16 in 2.0 mi Calm Calm - N/A   Scattered Clouds
7:53 AM 61.0 °F - 57.9 °F 90% 30.14 in 4.0 mi Calm Calm - N/A   Partly Cloudy
8:53 AM 64.9 °F - 62.1 °F 90% 30.15 in 6.0 mi SW 3.5 mph - N/A   Clear
9:53 AM 72.0 °F - 64.0 °F 76% 30.14 in 10.0 mi Variable 3.5 mph - N/A   Mostly Cloudy
10:53 AM 75.9 °F - 57.9 °F 54% 30.15 in 10.0 mi Calm Calm - N/A   Clear
11:53 AM 78.1 °F - 59.0 °F 52% 30.14 in 10.0 mi Calm Calm - N/A   Clear
12:53 PM 80.1 °F 80.6 °F 57.9 °F 47% 30.12 in 10.0 mi Variable 3.5 mph - N/A   Clear
1:53 PM 81.0 °F 81.0 °F 57.0 °F 44% 30.12 in 10.0 mi NNW 4.6 mph - N/A   Partly Cloudy
2:53 PM 80.1 °F 80.4 °F 57.0 °F 45% 30.12 in 10.0 mi NW 4.6 mph - N/A   Mostly Cloudy
3:53 PM 81.0 °F 81.3 °F 59.0 °F 47% 30.10 in 10.0 mi Calm Calm - N/A   Mostly Cloudy
4:53 PM 82.9 °F 82.4 °F 57.0 °F 41% 30.09 in 10.0 mi SW 3.5 mph - N/A   Partly Cloudy
5:53 PM 82.0 °F 81.7 °F 57.0 °F 42% 30.08 in 10.0 mi West 3.5 mph - N/A   Partly Cloudy
6:53 PM 81.0 °F 81.0 °F 57.0 °F 44% 30.07 in 10.0 mi Calm Calm - N/A   Clear
7:53 PM 78.1 °F - 57.9 °F 50% 30.06 in 10.0 mi Calm Calm - N/A   Clear
8:53 PM 68.0 °F - 60.1 °F 76% 30.08 in 10.0 mi Calm Calm - N/A   Clear
9:53 PM 66.0 °F - 59.0 °F 78% 30.09 in 10.0 mi Calm Calm - N/A   Clear
10:53 PM 63.0 °F - 59.0 °F 87% 30.09 in 10.0 mi Calm Calm - N/A   Clear
11:53 PM 63.0 °F - 57.9 °F 84% 30.11 in 10.0 mi Calm Calm - N/A   Clear